Hourly Data Report for October 17, 2014

All times are specified in Local Standard Time (LST). Add 1 hour to adjust for Daylight Saving Time where and when it is observed.

BATHURST A
NEW BRUNSWICK

47°37'47.000" N
65°44'20.000" W
58.80 m
8100505
71574
ZBF

Download Data

Hourly Data (October 2014)
Hourly Data Report for October 17, 2014
Temp Definition
°C
Dew Point Temp Definition
°C
Rel Hum Definition
%
Wind Dir Definition
10's deg

Wind Spd Definition
km/h
Visibility Definition
km
Stn Press Definition
kPa
Hmdx Definition


Wind Chill Definition


Weather Definition


TIME
00:00 Legend Double Dagger 9.6 9.5 99 3 8 2.4 100.91     Drizzle,Fog
01:00 Legend Double Dagger 9.7 9.6 99 2 5 12.9 100.83     Drizzle
02:00 Legend Double Dagger 9.8 9.7 99 1 6 8.1 100.74     Rain,Fog
03:00 Legend Double Dagger 9.6 9.5 99 2 9 0.8 100.63     Drizzle,Fog
04:00 Legend Double Dagger 9.6 9.5 99 2 7 0.8 100.54     Rain,Fog
05:00 Legend Double Dagger 9.7 9.6 99 36 7 0.4 100.44     Drizzle,Fog
06:00 Legend Double Dagger 9.8 9.7 99 1 6 0.4 100.34     Drizzle,Fog
07:00 Legend Double Dagger 10.1 10.0 99 2 3 0.2 100.24     Drizzle,Fog
08:00 Legend Double Dagger 10.6 10.6 100 4 4 0.4 100.09     Drizzle,Fog
09:00 Legend Double Dagger 12.6 12.6 100 11 4 24.1 99.98     LegendNANA
10:00 Legend Double Dagger 16.6 16.4 99 14 15 24.1 99.84     LegendNANA
11:00 Legend Double Dagger 16.9 16.3 96 14 14 16.1 99.69     Rain
12:00 Legend Double Dagger 17.3 16.7 96 12 21 16.1 99.43     Moderate Rain
13:00 Legend Double Dagger 17.8 16.8 94 14 31 16.1 99.13     Rain
14:00 Legend Double Dagger 17.4 16.8 96 17 19 1.2 99.06     Heavy Rain,Fog
15:00 Legend Double Dagger 17.4 16.8 96 16 17 19.3 98.89     Rain
16:00 Legend Double Dagger 17.6 15.4 87 22 12 24.1 98.91     LegendNANA
17:00 Legend Double Dagger 17.2 15.2 88 21 13 24.1 98.97     Mostly Cloudy
18:00 Legend Double Dagger 15.6 14.2 91 19 12 24.1 99.05     LegendNANA
19:00 Legend Double Dagger 15.4 14.1 92 20 16 24.1 99.11     LegendNANA
20:00 Legend Double Dagger 14.4 13.3 93 21 10 24.1 99.23     Clear
21:00 Legend Double Dagger 13.6 11.7 88 21 10 24.1 99.35     LegendNANA
22:00 Legend Double Dagger 12.4 11.2 92 19 9 24.1 99.38     LegendNANA
23:00 Legend Double Dagger 11.4 10.5 94 15 4 24.1 99.44     Clear

Notes on Data Quality.

Legend

  • E = Estimated
  • M = Missing
  • NA = Not Available
  • ‡ = Partner data that is not subject to review by the National Climate Archives
Date modified: